Tracking 17857 objects as of 30-September-2016
HD Live streaming from Space Station
objects crossing your sky now

SL-14 R/B

Track SL-14 R/B now!
10-day predictions
SL-14 R/B is classified as:


NORAD ID: 20466
Int'l Code: 1990-010B
Perigee: 617.1 km
Apogee: 648.0 km
Inclination: 82.5 °
Period: 97.2 minutes
Semi major axis: 7003 km
RCS: 4.6031 m2 (large)
Launch date: January 30, 1990
Source: Commonwealth of Independent States (former USSR) (CIS)
Launch site: PLESETSK MISSILE AND SPACE COMPLEX (PKMTR)

Note: This is a ROCKET BODY
Your satellite tracking list
Your tracking list is empty





NASA's NSSDC Master Catalog

Two Line Element Set (TLE):
1 20466U 90010B   16273.08488418  .00000164  00000-0  17872-4 0  9998
2 20466  82.5009 256.8904 0022012 114.4072 245.9442 14.81241215438840
Source of the keplerian elements: AFSPC

N2YO: 638